Vorticity
4 12 13 12 6 4 2 17 16 13 15 18 22 18 13 14 4 10 1 19 5 10 15 20 17 1 9 11 11 10 30 1 9 14 12 6 6 7
-1 7 9 5 11 12 14 10 12 12 12 11 10 13 17 21 20 8 3 8 -1 11 10 -1 9 9 4 12 12 15 23 10 12 14 9 8 6 10
3 5 12 11 15 11 11 10 11 11 11 11 9 9 16 11 15 17 18 13 8 14 1 11 6 13 21 17 6 27 25 5 11 10 7 8 9 5
4 11 11 10 4 4 2 4 6 7 5 5 5 4 8 17 20 11 13 17 10 9 14 16 12 7 23 23 16 19 21 13 6 10 11 9 5 8
2 15 10 7 2 6 6 6 5 4 7 8 8 13 8 8 18 14 14 17 17 16 21 6 22 11 26 12 4 2 43 2 12 10 8 9 10 8
7 10 9 3 7 3 3 3 4 3 5 5 12 12 10 8 16 18 9 8 8 11 16 19 4 32 25 24 7 11 34 4 14 7 10 9 6 9
8 11 5 6 2 4 1 2 3 6 6 10 11 12 11 12 13 18 13 8 9 12 12 15 14 11 12 15 11 15 27 13 3 10 13 5 7 11
12 9 4 4 4 3 2 3 1 5 6 7 9 8 13 11 10 15 14 12 11 16 17 14 23 12 16 8 12 16 30 11 4 11 9 12 9 7
11 10 5 4 5 4 4 4 5 7 6 9 11 7 4 12 14 14 16 12 12 19 19 -3 12 8 9 6 14 13 21 16 16 9 2 5 18 3
10 8 9 6 8 6 3 5 4 7 8 5 12 11 12 11 15 10 23 6 11 10 15 8 26 15 6 15 4 15 21 10 9 8 15 4 6 7
6 8 9 7 6 6 7 10 13 6 4 9 10 9 15 11 12 11 22 2 15 14 -3 47 23 14 15 17 9 11 19 4 14 20 2 17 2 10
9 8 8 7 7 6 11 10 5 7 7 13 13 15 16 13 14 11 21 6 -2 7 17 3 6 22 24 17 21 2 26 19 4 30 23 12 4 8
7 9 9 6 9 12 10 10 9 8 11 11 13 15 14 15 14 11 21 12 7 3 20 16 13 17 18 6 26 13 8 7 23 8 16 5 6 8
6 6 5 10 5 10 11 9 9 9 12 12 17 16 16 14 14 14 7 11 21 9 1 18 9 20 10 1 16 15 22 21 11 15 13 6 6 9
20 -5 11 11 15 11 9 11 10 11 11 14 17 19 17 13 10 11 17 9 12 14 12 14 15 15 -1 5 12 19 23 3 4 19 11 7 7 11
24 17 11 10 10 9 11 12 12 11 13 13 14 15 19 13 14 13 16 10 15 17 19 7 10 9 2 19 9 21 18 6 7 23 15 14 8 10
9 9 11 11 10 11 12 10 9 9 13 12 15 13 17 13 15 15 19 7 11 18 24 3 13 13 6 14 13 15 4 9 17 16 17 10 9 13
10 10 10 10 9 13 10 11 10 10 9 11 16 12 14 12 15 15 10 13 8 6 9 8 8 13 9 15 19 12 17 11 9 10 10 8 11 11
11 12 13 13 13 13 11 11 11 11 11 8 11 14 13 10 10 17 12 17 4 7 12 7 13 8 10 12 9 9 9 7 8 10 8 9 12 10
12 12 12 10 10 11 11 11 12 13 13 13 12 10 11 13 12 15 13 16 12 13 16 13 10 11 13 12 7 8 8 8 9 9 8 10 13 3
10 10 10 11 13 12 12 10 10 11 11 7 8 10 16 11 11 10 13 13 13 13 11 16 14 18 13 9 13 14 11 8 8 10 7 7 9 3
8 9 10 12 11 12 10 8 9 11 7 4 6 6 8 9 14 12 9 8 13 12 14 13 16 17 15 14 10 9 9 8 7 9 11 10 8 4
8 7 10 9 10 10 12 6 4 6 7 4 6 6 8 5 7 6 11 11 8 10 13 10 12 13 16 15 7 13 11 9 7 8 7 8 12 10
Height
5791 5791 5789 5788 5787 5784 5783 5780 5778 5775 5771 5766 5762 5758 5756 5754 5752 5750 5747 5745 5744 5741 5739 5736 5733 5730 5731 5729 5728 5728 5727 5727 5727 5732 5733 5734 5734 5735
5784 5782 5780 5779 5777 5774 5772 5770 5768 5766 5764 5759 5755 5752 5747 5745 5742 5740 5738 5734 5732 5729 5729 5725 5724 5721 5721 5720 5718 5718 5717 5719 5720 5723 5726 5726 5727 5728
5776 5775 5773 5771 5769 5768 5765 5764 5760 5758 5756 5752 5748 5742 5739 5734 5732 5729 5726 5723 5720 5718 5715 5714 5713 5711 5710 5709 5707 5709 5709 5710 5712 5713 5717 5719 5719 5721
5767 5766 5765 5763 5761 5759 5758 5755 5752 5750 5747 5742 5739 5736 5732 5726 5722 5718 5714 5711 5708 5706 5704 5702 5702 5701 5699 5699 5698 5698 5699 5700 5702 5706 5709 5711 5713 5714
5760 5758 5756 5755 5752 5750 5746 5743 5743 5742 5737 5735 5731 5726 5721 5716 5712 5708 5704 5700 5697 5694 5692 5690 5689 5689 5688 5687 5688 5688 5690 5689 5694 5696 5700 5703 5705 5707
5750 5749 5748 5747 5744 5739 5738 5735 5731 5729 5728 5724 5721 5715 5710 5705 5701 5697 5694 5691 5687 5684 5682 5680 5679 5677 5677 5678 5677 5677 5679 5679 5683 5686 5690 5693 5696 5699
5740 5739 5738 5736 5733 5731 5727 5726 5721 5720 5718 5714 5708 5703 5699 5695 5690 5686 5683 5680 5677 5674 5672 5671 5670 5669 5669 5667 5666 5668 5669 5670 5673 5678 5682 5684 5688 5691
5728 5727 5726 5724 5722 5718 5716 5716 5713 5710 5707 5701 5696 5692 5688 5684 5680 5676 5673 5670 5668 5665 5662 5660 5659 5658 5657 5657 5658 5658 5660 5662 5665 5669 5673 5674 5679 5682
5717 5716 5714 5713 5710 5708 5708 5704 5701 5699 5696 5690 5686 5682 5678 5674 5670 5666 5662 5660 5658 5654 5652 5650 5649 5648 5648 5649 5649 5650 5652 5654 5657 5660 5664 5666 5670 5672
5705 5704 5703 5700 5697 5698 5697 5694 5691 5686 5684 5680 5676 5672 5668 5664 5660 5656 5653 5650 5648 5645 5643 5641 5640 5640 5640 5641 5641 5643 5644 5645 5647 5651 5654 5659 5662 5665
5692 5691 5688 5687 5685 5685 5683 5680 5677 5674 5671 5669 5665 5661 5657 5654 5650 5646 5643 5641 5639 5637 5636 5632 5632 5632 5631 5632 5634 5635 5636 5637 5640 5644 5646 5651 5654 5657
5680 5677 5675 5673 5673 5673 5669 5667 5664 5663 5660 5657 5653 5649 5646 5642 5639 5636 5632 5631 5630 5628 5627 5625 5624 5623 5623 5624 5625 5627 5628 5630 5633 5635 5638 5642 5645 5648
5666 5664 5662 5662 5659 5657 5656 5654 5652 5650 5647 5644 5641 5637 5633 5631 5628 5625 5623 5622 5621 5620 5617 5616 5615 5616 5616 5617 5618 5620 5621 5623 5625 5628 5631 5634 5637 5640
5651 5651 5649 5650 5649 5646 5643 5642 5640 5637 5635 5632 5628 5625 5621 5619 5617 5615 5614 5613 5611 5611 5610 5608 5608 5609 5609 5610 5611 5612 5614 5616 5619 5621 5624 5626 5629 5632
5637 5637 5637 5637 5636 5634 5632 5630 5628 5626 5622 5620 5616 5613 5610 5608 5607 5605 5604 5604 5602 5601 5601 5601 5601 5602 5603 5603 5603 5605 5608 5609 5612 5614 5616 5618 5621 5624
5625 5624 5625 5625 5623 5623 5621 5620 5617 5613 5611 5609 5606 5602 5600 5598 5597 5595 5595 5594 5593 5592 5592 5593 5594 5594 5595 5595 5595 5597 5599 5601 5603 5606 5608 5611 5614 5616
5612 5613 5613 5612 5611 5610 5610 5609 5606 5603 5601 5598 5596 5593 5590 5589 5588 5586 5585 5586 5585 5584 5584 5585 5585 5586 5587 5587 5587 5589 5591 5593 5595 5598 5601 5603 5605 5608
5600 5601 5601 5600 5599 5599 5599 5597 5594 5593 5591 5588 5585 5583 5581 5580 5578 5577 5576 5576 5577 5577 5577 5577 5577 5577 5578 5579 5580 5582 5584 5586 5588 5590 5592 5594 5597 5599
5588 5588 5588 5588 5588 5588 5586 5584 5583 5582 5581 5579 5576 5574 5573 5571 5570 5568 5568 5567 5567 5568 5568 5568 5568 5568 5569 5570 5572 5573 5574 5577 5579 5581 5583 5585 5587 5590
5576 5576 5576 5576 5576 5575 5573 5573 5572 5572 5571 5568 5567 5565 5564 5563 5561 5560 5559 5558 5558 5558 5558 5558 5558 5558 5559 5561 5562 5563 5566 5567 5569 5572 5573 5576 5578 5580
5564 5563 5563 5563 5563 5563 5563 5562 5561 5561 5560 5558 5557 5556 5555 5554 5552 5551 5550 5549 5548 5548 5548 5548 5549 5551 5551 5550 5552 5553 5555 5557 5559 5561 5563 5564 5566 5568
5551 5551 5551 5550 5550 5551 5551 5551 5550 5550 5549 5548 5548 5547 5545 5544 5543 5542 5541 5541 5540 5539 5539 5539 5539 5540 5540 5541 5542 5542 5544 5546 5548 5550 5552 5553 5555 5556
5538 5537 5537 5537 5538 5538 5538 5538 5539 5539 5538 5538 5538 5537 5535 5534 5533 5533 5532 5531 5531 5530 5529 5529 5529 5530 5530 5531 5531 5532 5533 5534 5536 5538 5540 5540 5542 5543